Terug naar catalogus

GGSE 1

GGRS

ActiefNavigatieLEO
NORAD 728·PAYLOAD·🇺🇸 United States

Gelanceerd Jan 11, 1964 vanaf Vandenberg Space Force Base

Loading…

Volgende Passages (komende 24 uur)

TLE

VersSource: Space-Track

Epoch: Sep 14, 2026, 08:12 UTC

1 00728U 64001B   26257.34199306  .00000019  00000-0  51542-4 0  9996
2 00728  69.9102  11.5697 0015660 238.7110 121.2463 13.97790034192133

Volg GGSE 1 in realtime met AllMySat

Download on the App Store